Weather History for Burlington, WI

Change the Weather History Date:

Sunday, December 2, 2012

  Actual Average (KENW) Record (KENW)
Temperature  
Mean Temperature 45 °F -  
Max Temperature 57 °F 38 °F 62 °F (1962)
Min Temperature 33 °F 23 °F -2 °F (1976)
Degree Days  
Heating Degree Days 20    
Moisture  
Dew Point 44 °F    
Average Humidity 87    
Maximum Humidity 100    
Minimum Humidity 59    
Precipitation  
Precipitation 0.00 in - - ()
Sea Level Pressure  
Sea Level Pressure 29.96 in    
Wind  
Wind Speed 7 mph (WSW)    
Max Wind Speed 13 mph    
Max Gust Speed 16 mph    
Visibility 6 miles    
Events Fog    
Averages and records for this station are not official NWS values.
T = Trace of Precipitation, MM = Missing Value Source: NWS Daily Summary

Daily Weather History Graph

Daily Weather History Graph

Search for Another Location

Airport:

Trip Planner

Search our weather history database for the weather conditions in past years. The results will help you decide how hot, cold, wet, or windy it might be!

Date:

Astronomy

Dec. 02, 2012 Rise Set
Actual Time 7:05 AM CST 4:20 PM CST
Civil Twilight 6:33 AM CST 4:51 PM CST
Nautical Twilight 5:58 AM CST 5:27 PM CST
Astronomical Twilight 5:24 AM CST 6:01 PM CST
Moon 8:09 PM CST (12/2) 9:53 AM CST (12/2)
Length of Visible Light 10h 18m
Length of Day
9h 14m
Waning Gibbous, 85% of the Moon is Illuminated
Dec 2
Waning Gibbous
Dec 6
Last Quarter
Dec 13
New
Dec 19
First Quarter
Dec 28
Full

Hourly Weather History & Observations

Time (CST) Temp. Windchill Dew Point Humidity Pressure Visibility Wind Dir Wind Speed Gust Speed Precip Events Conditions
12:15 AM 53.6 °F - 50.0 °F 88% 29.85 in 10.0 mi SSW 11.5 mph 16.1 mph N/A   Overcast
12:35 AM 53.6 °F - 50.0 °F 88% 29.85 in 10.0 mi SSW 12.7 mph 16.1 mph N/A   Overcast
12:55 AM 53.6 °F - 50.0 °F 88% 29.85 in 10.0 mi SSW 10.4 mph - N/A   Overcast
1:15 AM 53.6 °F - 50.0 °F 88% 29.85 in 10.0 mi SSW 9.2 mph - N/A   Overcast
1:35 AM 53.6 °F - 50.0 °F 88% 29.85 in 10.0 mi SSW 9.2 mph - N/A   Overcast
1:55 AM 53.6 °F - 50.0 °F 88% 29.85 in 10.0 mi SSW 11.5 mph - N/A   Overcast
2:15 AM 53.6 °F - 50.0 °F 88% 29.86 in 10.0 mi SW 11.5 mph - N/A   Overcast
2:35 AM 53.6 °F - 50.0 °F 88% 29.85 in 10.0 mi SSW 8.1 mph - N/A   Overcast
2:55 AM 53.6 °F - 50.0 °F 88% 29.85 in 10.0 mi SSW 6.9 mph - N/A   Overcast
3:15 AM 53.6 °F - 50.0 °F 88% 29.85 in 10.0 mi SSW 6.9 mph - N/A   Overcast
3:35 AM 53.6 °F - 50.0 °F 88% 29.85 in 10.0 mi SSW 6.9 mph - N/A   Overcast
3:55 AM 51.8 °F - 50.0 °F 94% 29.85 in 10.0 mi SW 8.1 mph - N/A   Overcast
4:15 AM 51.8 °F - 50.0 °F 94% 29.85 in 10.0 mi SW 5.8 mph - N/A   Overcast
4:35 AM 51.8 °F - 50.0 °F 94% 29.86 in 10.0 mi SW 6.9 mph - N/A   Overcast
4:55 AM 51.8 °F - 50.0 °F 94% 29.85 in 10.0 mi SW 6.9 mph - N/A   Overcast
5:15 AM 51.8 °F - 50.0 °F 94% 29.86 in 7.0 mi SW 5.8 mph - N/A   Overcast
5:35 AM 51.8 °F - 50.0 °F 94% 29.87 in 7.0 mi WSW 3.5 mph - N/A   Overcast
5:55 AM 51.8 °F - 50.0 °F 94% 29.88 in 7.0 mi West 3.5 mph - N/A   Overcast
6:15 AM 51.8 °F - 50.0 °F 94% 29.89 in 7.0 mi WSW 4.6 mph - N/A   Overcast
6:35 AM 51.8 °F - 50.0 °F 94% 29.90 in 7.0 mi WSW 5.8 mph - N/A   Overcast
6:55 AM 51.8 °F - 50.0 °F 94% 29.91 in 7.0 mi WSW 5.8 mph - N/A   Overcast
7:15 AM 51.8 °F - 50.0 °F 94% 29.92 in 4.0 mi West 4.6 mph - N/A   Overcast
7:35 AM 51.8 °F - 50.0 °F 94% 29.92 in 4.0 mi West 5.8 mph - N/A   Overcast
7:55 AM 51.8 °F - 50.0 °F 94% 29.92 in 4.0 mi West 6.9 mph - N/A   Overcast
8:15 AM 51.8 °F - 50.0 °F 94% 29.93 in 4.0 mi West 4.6 mph - N/A   Overcast
8:35 AM 51.8 °F - 50.0 °F 94% 29.93 in 5.0 mi West 3.5 mph - N/A   Overcast
8:55 AM 53.6 °F - 50.0 °F 88% 29.94 in 5.0 mi WNW 5.8 mph - N/A   Overcast
9:15 AM 53.6 °F - 50.0 °F 88% 29.95 in 5.0 mi WNW 4.6 mph - N/A   Mostly Cloudy
9:35 AM 53.6 °F - 50.0 °F 88% 29.96 in 5.0 mi NW 8.1 mph - N/A   Haze
10:15 AM 53.6 °F - 46.4 °F 77% 29.97 in 7.0 mi WNW 6.9 mph - N/A   Scattered Clouds
10:35 AM 55.4 °F - 46.4 °F 72% 29.97 in 7.0 mi NW 6.9 mph - N/A   Scattered Clouds
10:55 AM 53.6 °F - 46.4 °F 77% 29.96 in 7.0 mi NNW 6.9 mph - N/A   Scattered Clouds
11:15 AM 53.6 °F - 46.4 °F 77% 29.96 in 7.0 mi NW 5.8 mph - N/A   Clear
11:55 AM 55.4 °F - 46.4 °F 72% 29.97 in 7.0 mi WNW 6.9 mph - N/A   Clear
12:15 PM 57.2 °F - 44.6 °F 63% 29.97 in 10.0 mi NW 8.1 mph - N/A   Clear
12:55 PM 57.2 °F - 44.6 °F 63% 29.96 in 10.0 mi West 5.8 mph - N/A   Clear
1:15 PM 57.2 °F - 42.8 °F 59% 29.97 in 10.0 mi NW 5.8 mph - N/A   Clear
1:35 PM 57.2 °F - 42.8 °F 59% 29.97 in 7.0 mi WNW 3.5 mph - N/A   Clear
1:55 PM 55.4 °F - 42.8 °F 63% 29.97 in 10.0 mi WNW 5.8 mph - N/A   Clear
2:15 PM 55.4 °F - 42.8 °F 63% 29.97 in 10.0 mi WNW 3.5 mph - N/A   Clear
2:35 PM 55.4 °F - 42.8 °F 63% 29.97 in 10.0 mi Calm Calm - N/A   Clear
2:55 PM 55.4 °F - 42.8 °F 63% 29.98 in 10.0 mi North 4.6 mph - N/A   Clear
3:15 PM 55.4 °F - 42.8 °F 63% 29.99 in 10.0 mi North 4.6 mph - N/A   Clear
3:35 PM 53.6 °F - 42.8 °F 67% 29.98 in 7.0 mi Calm Calm - N/A   Clear
3:55 PM 53.6 °F - 42.8 °F 67% 29.99 in 7.0 mi Calm Calm - N/A   Clear
4:15 PM 50.0 °F - 42.8 °F 76% 30.00 in 7.0 mi ESE 8.1 mph - N/A   Clear
4:55 PM 44.6 °F 39.7 °F 41.0 °F 87% 30.02 in 7.0 mi ENE 9.2 mph - N/A   Clear
5:15 PM 44.6 °F 40.7 °F 41.0 °F 87% 30.04 in 5.0 mi ENE 6.9 mph - N/A   Clear
5:35 PM 42.8 °F 40.1 °F 41.0 °F 93% 30.05 in 4.0 mi ENE 4.6 mph - N/A   Clear
6:15 PM 41.0 °F 39.0 °F 37.4 °F 87% 30.06 in 4.0 mi East 3.5 mph - N/A   Clear
6:35 PM 41.0 °F - 37.4 °F 87% 30.07 in 4.0 mi Calm Calm - N/A   Clear
6:55 PM 39.2 °F - 37.4 °F 93% 30.07 in 3.0 mi Calm Calm - N/A   Clear
7:15 PM 37.4 °F 34.9 °F 37.4 °F 100% 30.07 in 2.5 mi ESE 3.5 mph - N/A   Clear
7:35 PM 37.4 °F - 37.4 °F 100% 30.07 in 2.5 mi Calm Calm - N/A   Clear
7:55 PM 35.6 °F 31.7 °F 35.6 °F 100% 30.08 in 1.5 mi NNE 4.6 mph - N/A   Mist
8:15 PM 33.8 °F 30.8 °F 33.8 °F 100% 30.07 in 0.5 mi South 3.5 mph - N/A Fog Fog
8:35 PM 33.8 °F - 33.8 °F 100% 30.07 in 0.5 mi Calm Calm - N/A Fog Fog
8:55 PM 33.8 °F - 33.8 °F 100% 30.05 in 0.2 mi Calm Calm - N/A Fog Fog
9:15 PM 33.8 °F - 33.8 °F 100% 30.04 in 0.2 mi Calm Calm - N/A Fog Fog
9:35 PM 33.8 °F - 33.8 °F 100% 30.04 in 0.2 mi Calm Calm - N/A Fog Fog
9:55 PM 35.6 °F - 35.6 °F 100% 30.04 in 0.2 mi Calm Calm - N/A Fog Fog
10:15 PM 35.6 °F - 35.6 °F 100% 30.04 in 0.2 mi Calm Calm - N/A Fog Fog
10:35 PM 35.6 °F - 35.6 °F 100% 30.04 in 0.2 mi Calm Calm - N/A Fog Fog
10:55 PM 35.6 °F - 35.6 °F 100% 30.05 in 0.2 mi Calm Calm - N/A Fog Fog
11:15 PM 35.6 °F - 35.6 °F 100% 30.05 in 1.0 mi Calm Calm - N/A   Overcast
11:35 PM 37.4 °F - 37.4 °F 100% 30.05 in 1.2 mi Calm Calm - N/A   Overcast
11:55 PM 37.4 °F - 37.4 °F 100% 30.04 in 1.5 mi Calm Calm - N/A   Overcast